Probability
81 65 52 48 45 42 52 68 71 87 90 87 94 100 94 81 74 61 45 77 100 100 100 100 100 100 100 100 100 100 100 100 100 100 100 100 100 100 94 65 32 6 6
77 26 10 13 23 39 45 74 74 84 87 87 87 90 94 87 74 71 71 74 100 100 100 100 100 100 100 100 100 100 100 100 100 100 100 100 100 100 100 84 52 6 0
32 23 10 13 23 35 55 71 71 68 68 61 68 71 71 71 81 74 84 87 87 97 100 100 100 100 100 100 100 100 100 100 100 100 100 100 100 97 94 87 65 13 0
6 10 10 13 26 42 55 58 61 61 61 61 58 48 55 61 71 68 71 77 68 68 94 97 100 100 100 100 100 100 100 100 100 100 100 100 97 97 90 68 42 13 0
68 39 39 48 55 55 71 58 52 45 39 39 39 39 45 48 52 48 55 58 52 58 58 61 90 97 97 97 100 100 100 100 100 100 100 100 100 97 77 45 23 6 0
90 84 81 87 84 81 81 68 55 48 35 32 23 26 29 32 32 32 32 32 32 35 42 45 39 52 87 94 100 100 100 100 100 100 100 100 100 100 77 23 6 0 0
68 68 74 84 84 81 84 71 61 52 48 39 19 23 19 16 19 23 23 26 26 23 26 26 26 42 52 61 84 100 100 100 100 100 100 100 100 100 77 29 3 0 0
39 45 45 45 52 68 65 71 55 52 42 39 16 10 6 6 3 3 16 16 19 13 10 6 13 16 29 45 32 45 81 100 100 100 100 100 90 94 81 29 3 0 0
6 13 10 13 23 35 45 52 52 42 42 39 23 13 0 0 0 0 0 0 0 3 3 3 0 0 10 26 39 6 48 71 84 94 100 94 58 42 35 26 3 0 0
0 0 6 6 10 23 29 35 42 42 42 39 32 19 13 0 0 0 0 0 0 0 0 0 0 0 0 13 6 0 0 3 23 68 87 90 58 19 10 23 39 16 0
0 0 0 0 6 10 13 19 23 23 32 39 35 10 10 10 3 3 3 0 0 0 0 0 0 0 0 0 0 0 0 0 0 0 16 23 39 29 23 39 77 84 35
0 0 0 0 0 6 6 13 10 10 10 10 19 6 6 6 6 3 3 3 0 0 0 0 0 0 0 0 0 0 0 0 0 0 0 0 3 13 16 29 48 65 68
0 0 0 0 0 3 3 3 0 0 0 0 6 6 6 6 3 3 3 0 0 0 0 0 0 0 0 0 0 0 0 0 0 0 0 0 0 0 0 0 10 26 32
0 0 0 0 0 0 0 0 0 3 6 6 3 6 6 6 6 0 0 0 0 0 0 0 0 0 0 0 0 0 0 0 0 0 0 0 0 0 0 0 0 0 0
0 0 0 0 0 0 0 0 0 0 3 3 0 3 3 0 0 0 0 0 0 0 0 0 0 0 0 0 0 0 0 0 0 0 0 0 0 0 0 0 0 0 0
0 0 0 0 0 0 0 0 0 0 0 0 0 0 0 0 0 0 0 0 0 0 0 0 0 0 0 0 0 0 0 0 0 0 0 0 0 0 0 0 0 0 0
0 0 0 0 0 0 0 0 0 0 0 0 0 0 0 0 0 0 0 0 0 0 0 0 0 0 0 0 0 0 0 0 0 0 0 0 0 0 0 0 0 0 0
0 0 0 0 0 0 0 0 0 0 0 0 0 0 0 0 0 0 0 0 0 0 0 0 0 0 0 0 0 0 0 0 0 0 0 0 0 0 0 0 0 0 0
0 0 0 0 0 0 0 0 0 0 0 0 0 0 0 0 0 0 0 0 0 0 0 0 0 0 0 0 0 0 0 0 0 0 0 0 0 0 0 0 0 0 0
0 0 0 0 0 0 0 0 0 0 0 0 0 0 0 0 0 0 0 0 0 0 0 0 0 0 0 0 0 0 0 0 0 0 0 0 0 0 0 0 0 0 0
0 0 0 0 0 0 0 0 0 0 0 0 0 0 0 0 0 0 0 0 0 0 0 0 0 0 0 0 0 0 0 0 0 0 0 0 0 0 0 0 0 0 0
0 0 0 0 0 0 0 0 0 0 0 0 0 0 0 0 0 0 0 0 0 0 0 0 0 0 0 0 0 0 0 0 0 0 0 0 0 0 0 0 0 0 0
0 0 0 0 0 0 0 0 0 0 0 0 0 0 0 0 0 0 0 0 0 0 0 0 0 0 0 0 0 0 0 0 0 0 0 0 0 0 0 0 0 0 0
0 0 0 0 0 0 0 0 0 0 0 0 0 0 0 0 0 0 0 0 0 0 0 0 0 0 0 0 0 0 0 0 0 0 0 0 0 0 0 0 0 0 0
0 0 0 0 0 0 0 0 0 0 0 0 0 0 0 0 0 0 0 0 0 0 0 0 0 0 0 0 0 0 0 0 0 0 0 0 0 0 0 0 0 0 0
0 0 0 0 0 0 0 0 0 0 0 0 0 0 0 0 0 0 0 0 0 0 0 0 0 0 0 0 0 0 0 0 0 0 0 0 0 0 0 0 0 0 0
Height
5877 5876 5875 5874 5872 5871 5870 5869 5868 5867 5867 5866 5865 5864 5864 5864 5863 5863 5863 5864 5864 5864 5864 5865 5866 5866 5867 5867 5867 5868 5869 5870 5871 5872 5872 5874 5875 5875 5876 5876 5877 5877 5878
5868 5867 5867 5866 5865 5863 5862 5861 5860 5859 5857 5857 5856 5856 5856 5856 5857 5857 5857 5857 5857 5858 5858 5859 5860 5861 5861 5862 5863 5863 5864 5865 5866 5867 5868 5869 5870 5871 5872 5872 5873 5874 5875
5858 5857 5857 5857 5856 5854 5852 5851 5851 5849 5848 5847 5847 5847 5848 5848 5848 5849 5849 5849 5850 5850 5851 5851 5852 5854 5855 5856 5857 5858 5859 5860 5861 5862 5863 5863 5864 5865 5866 5868 5869 5870 5871
5849 5847 5847 5847 5847 5845 5844 5843 5842 5840 5839 5838 5838 5838 5839 5839 5840 5841 5841 5841 5842 5842 5842 5843 5845 5846 5847 5849 5850 5851 5852 5853 5854 5856 5857 5857 5858 5859 5861 5862 5863 5865 5866
5840 5839 5838 5838 5838 5837 5836 5835 5833 5831 5830 5829 5828 5829 5830 5830 5831 5832 5832 5833 5833 5833 5834 5835 5836 5837 5839 5840 5842 5844 5845 5846 5847 5849 5850 5851 5852 5853 5854 5856 5857 5859 5861
5832 5830 5830 5829 5828 5828 5827 5826 5824 5823 5822 5821 5820 5820 5820 5821 5822 5822 5822 5823 5824 5824 5825 5827 5828 5829 5830 5831 5833 5835 5836 5838 5840 5841 5843 5844 5845 5846 5847 5849 5851 5853 5854
5823 5821 5820 5819 5818 5818 5818 5817 5815 5815 5814 5812 5811 5811 5811 5811 5812 5813 5813 5813 5815 5815 5817 5818 5819 5820 5821 5822 5823 5825 5827 5829 5831 5833 5835 5836 5837 5839 5840 5842 5844 5846 5848
5814 5812 5810 5809 5808 5807 5807 5807 5805 5804 5805 5804 5802 5801 5802 5802 5802 5803 5803 5804 5805 5806 5807 5808 5809 5811 5811 5812 5813 5814 5816 5818 5821 5824 5826 5828 5830 5831 5833 5835 5836 5838 5840
5804 5802 5801 5799 5798 5797 5796 5796 5795 5794 5795 5795 5793 5792 5792 5793 5793 5794 5794 5794 5795 5796 5797 5798 5799 5800 5801 5802 5803 5804 5806 5808 5811 5814 5817 5820 5822 5824 5825 5827 5829 5831 5833
5794 5792 5791 5789 5788 5787 5786 5786 5785 5784 5784 5785 5784 5783 5783 5784 5784 5785 5786 5786 5786 5787 5788 5789 5790 5791 5791 5791 5792 5794 5796 5798 5801 5804 5808 5811 5813 5816 5817 5819 5821 5823 5825
5782 5780 5779 5778 5777 5776 5776 5775 5775 5774 5774 5774 5774 5774 5773 5773 5774 5776 5778 5778 5778 5778 5779 5780 5780 5781 5781 5782 5783 5784 5786 5789 5792 5795 5798 5802 5805 5807 5809 5811 5813 5815 5817
5771 5769 5767 5766 5765 5765 5764 5764 5764 5764 5764 5764 5764 5764 5764 5765 5765 5766 5768 5769 5769 5769 5770 5770 5770 5771 5771 5772 5773 5775 5777 5780 5782 5786 5789 5793 5796 5798 5801 5803 5805 5807 5809
5762 5758 5755 5754 5753 5752 5752 5752 5753 5753 5753 5753 5753 5754 5754 5754 5755 5756 5757 5758 5759 5759 5760 5760 5760 5760 5761 5763 5764 5767 5769 5771 5774 5777 5780 5783 5787 5790 5792 5794 5797 5799 5801
5753 5749 5745 5743 5741 5740 5740 5740 5741 5741 5741 5742 5742 5743 5743 5744 5744 5745 5746 5748 5749 5750 5750 5750 5750 5751 5752 5754 5756 5758 5760 5762 5766 5768 5772 5775 5778 5781 5784 5786 5789 5791 5793
5744 5740 5736 5733 5731 5729 5728 5728 5728 5729 5729 5730 5730 5731 5732 5732 5733 5734 5736 5737 5739 5740 5741 5741 5742 5742 5744 5746 5748 5750 5752 5754 5757 5760 5763 5766 5769 5772 5775 5778 5780 5783 5785
5736 5732 5728 5724 5721 5719 5717 5717 5716 5717 5717 5718 5719 5720 5721 5722 5723 5724 5726 5727 5729 5731 5732 5733 5734 5735 5737 5738 5740 5742 5744 5746 5748 5751 5753 5757 5760 5763 5766 5769 5771 5774 5776
5728 5724 5719 5715 5712 5709 5707 5706 5705 5705 5706 5707 5708 5709 5710 5712 5713 5715 5717 5719 5721 5723 5724 5726 5727 5729 5730 5732 5733 5735 5736 5738 5740 5742 5745 5748 5751 5754 5757 5760 5762 5765 5767
5721 5716 5712 5707 5704 5701 5699 5697 5696 5695 5696 5697 5698 5699 5701 5703 5705 5707 5709 5711 5714 5716 5718 5719 5721 5723 5724 5726 5727 5728 5730 5731 5733 5735 5738 5740 5743 5746 5748 5751 5753 5755 5758
5713 5709 5705 5700 5696 5693 5691 5689 5687 5687 5687 5688 5690 5691 5693 5695 5698 5700 5703 5705 5707 5710 5712 5714 5716 5717 5719 5720 5721 5723 5724 5726 5728 5730 5732 5734 5736 5738 5741 5743 5745 5746 5748
5705 5701 5698 5694 5690 5687 5684 5682 5681 5680 5680 5681 5682 5684 5686 5688 5691 5694 5697 5699 5702 5704 5706 5708 5710 5712 5714 5715 5717 5718 5720 5722 5723 5725 5727 5728 5730 5732 5733 5734 5736 5737 5738
5698 5694 5691 5687 5684 5681 5679 5676 5675 5674 5674 5675 5676 5678 5681 5683 5685 5688 5691 5694 5697 5699 5701 5703 5705 5707 5709 5710 5712 5714 5715 5717 5718 5719 5721 5722 5723 5724 5725 5726 5726 5727 5727
5690 5687 5684 5681 5678 5676 5673 5671 5670 5669 5669 5670 5671 5673 5675 5678 5681 5683 5686 5689 5691 5694 5696 5698 5700 5703 5704 5706 5708 5709 5711 5712 5713 5714 5714 5715 5716 5716 5716 5716 5716 5716 5716
5681 5679 5677 5674 5672 5670 5668 5667 5666 5665 5665 5666 5667 5669 5672 5674 5677 5678 5681 5683 5686 5689 5692 5695 5697 5698 5700 5702 5703 5705 5706 5707 5707 5707 5708 5708 5708 5708 5707 5706 5705 5704 5703
5670 5670 5669 5668 5666 5665 5663 5662 5661 5661 5661 5662 5664 5666 5668 5670 5673 5675 5677 5680 5683 5686 5688 5691 5693 5695 5697 5698 5699 5700 5701 5701 5701 5701 5701 5701 5700 5699 5698 5696 5694 5693 5691
5659 5660 5660 5660 5660 5659 5658 5658 5657 5657 5658 5659 5660 5663 5665 5667 5669 5672 5675 5677 5680 5683 5685 5687 5689 5691 5693 5694 5695 5696 5696 5696 5696 5696 5695 5693 5692 5690 5688 5686 5683 5681 5678
5647 5649 5651 5652 5653 5653 5653 5653 5653 5654 5654 5656 5657 5660 5662 5665 5667 5670 5673 5675 5678 5680 5683 5685 5687 5689 5690 5691 5692 5692 5692 5692 5691 5690 5689 5687 5684 5682 5679 5676 5672 5669 5666
Wind_Speed
32 33 33 33 34 34 34 33 33 32 31 29 27 26 25 24 24 23 23 23 24 25 25 23 22 21 20 18 16 15 14 14 14 15 16 17 17 18 18 18 17 16 15
37 37 36 36 37 37 38 38 38 38 37 35 33 31 30 28 27 26 27 27 26 27 28 28 28 27 25 23 21 20 18 17 17 17 17 18 19 19 19 20 20 19 18
40 39 39 38 39 40 41 41 41 42 41 40 38 37 34 33 32 30 29 30 30 31 31 31 31 31 30 29 27 25 24 22 21 20 20 20 20 21 21 21 22 22 21
41 41 41 41 42 42 43 43 43 44 43 42 41 40 39 37 35 34 32 32 32 34 35 34 33 34 34 33 33 31 30 28 26 24 23 23 22 22 23 23 23 23 23
39 40 40 41 42 43 44 44 44 45 43 41 41 40 41 39 37 36 35 35 35 35 37 37 36 36 36 36 36 36 35 33 31 28 27 26 25 24 24 24 24 24 24
39 40 41 41 42 43 44 45 46 46 44 42 41 40 39 40 38 36 36 36 36 36 37 37 37 36 37 37 38 39 38 38 35 33 30 29 27 26 26 26 25 25 25
40 41 42 43 44 45 45 46 46 46 45 44 43 40 38 38 36 35 35 36 37 37 37 38 38 38 38 38 39 40 41 40 39 37 34 32 30 28 27 27 26 26 26
38 39 40 42 43 44 44 44 45 45 44 44 43 40 37 35 35 34 34 34 35 37 37 39 39 39 39 39 39 40 41 41 40 38 36 34 32 30 28 28 28 27 27
39 39 39 40 40 41 41 41 42 42 42 41 41 39 37 34 33 32 32 33 33 34 35 36 37 38 38 38 38 40 40 41 41 40 38 36 33 31 30 29 29 29 28
40 40 40 40 40 40 39 39 39 39 39 38 38 38 37 36 34 31 31 32 31 31 31 33 34 34 35 35 36 38 40 40 39 39 38 36 34 33 31 30 29 30 29
40 41 41 41 41 41 40 39 38 37 37 36 36 36 36 36 34 33 31 31 32 33 33 34 34 34 33 34 34 35 35 37 38 38 37 36 34 33 31 30 29 29 29
39 40 40 41 42 42 41 40 39 38 37 36 36 36 36 36 35 35 34 33 34 34 34 34 34 34 33 33 33 32 32 33 35 35 35 35 33 32 31 30 30 30 29
37 38 39 40 41 41 41 41 40 39 39 38 38 38 38 37 37 37 36 35 35 34 35 34 33 33 33 32 32 32 32 33 33 33 33 33 32 31 31 30 30 31 31
36 36 37 38 39 40 41 41 41 40 40 40 39 39 39 39 38 37 37 36 35 34 34 32 31 31 31 31 32 32 33 33 34 35 34 33 33 32 31 30 31 31 32
36 36 35 35 36 37 39 39 40 40 40 40 39 39 38 38 37 36 36 35 34 32 30 29 28 28 29 30 31 32 33 34 35 35 35 35 34 33 33 33 33 33 34
37 36 34 34 34 35 36 37 38 39 39 39 38 38 37 36 35 34 33 31 30 29 28 27 26 26 27 28 30 32 33 35 37 37 36 35 35 35 35 35 36 36 35
38 36 34 33 32 32 33 34 35 35 35 35 35 34 34 33 32 30 29 27 26 25 24 24 24 25 27 28 29 30 31 33 34 35 35 34 33 33 34 34 35 36 36
38 36 34 32 30 30 29 30 31 31 31 30 30 30 29 28 26 25 25 24 23 22 22 22 23 25 26 27 27 28 29 30 31 32 32 31 31 31 32 32 33 34 35
37 36 34 31 29 28 27 26 27 27 27 27 27 27 26 26 24 24 23 22 21 22 23 23 24 24 24 24 25 25 25 25 25 26 28 30 30 31 32 33 34 35 36
37 35 33 31 28 26 25 24 23 22 23 24 24 25 25 25 24 23 22 21 22 22 22 22 22 23 23 22 21 20 20 21 22 23 25 26 28 30 32 33 35 37 38
36 34 32 30 27 25 23 22 21 19 19 21 23 23 23 23 23 23 22 21 21 21 21 20 20 19 18 17 17 16 17 18 20 21 23 25 27 29 31 33 36 38 40
35 33 31 29 26 24 22 21 19 19 19 19 21 22 23 23 23 22 22 21 20 19 18 17 16 15 15 15 15 15 16 17 19 20 22 24 26 28 30 32 35 37 39
35 32 30 27 25 23 20 19 18 17 17 18 18 21 22 21 20 20 20 19 17 16 15 15 14 14 13 13 13 14 15 16 18 20 22 24 26 28 30 33 36 38 40
35 32 28 26 23 21 19 17 17 15 15 15 16 18 18 18 17 18 17 16 15 13 13 13 12 12 11 11 12 13 14 16 17 19 21 24 26 28 30 33 36 38 41
35 32 28 25 22 20 18 16 14 13 14 14 14 14 15 15 15 15 14 13 12 11 11 10 9 9 9 9 10 11 12 14 15 18 20 22 24 26 29 31 34 36 39
36 32 28 24 22 19 17 15 14 13 13 14 14 13 13 13 13 13 12 11 11 9 8 8 8 8 8 8 9 9 10 12 14 15 17 19 21 24 26 29 31 33 35
Wind_Direction
275 275 276 276 277 277 276 276 275 273 270 267 266 265 266 267 267 266 266 266 265 263 261 259 259 260 262 265 267 271 274 278 280 279 276 273 271 268 264 260 258 256 255
271 271 271 272 273 273 272 273 272 271 268 265 263 262 261 262 263 265 265 264 265 265 263 261 259 258 259 260 263 266 270 273 276 277 276 272 269 267 265 261 258 256 255
269 268 268 268 270 270 271 271 271 271 269 267 263 262 261 260 260 262 265 265 264 264 264 263 262 260 259 259 259 261 264 267 270 273 273 271 268 265 263 261 258 256 255
275 271 270 269 270 271 272 273 274 273 275 272 267 264 261 261 261 262 264 265 265 264 263 263 262 261 259 258 258 259 260 262 264 268 270 270 267 264 261 259 258 256 255
279 277 275 274 273 273 274 276 276 276 278 278 275 271 265 262 260 261 262 263 265 264 262 262 262 261 260 258 258 258 258 258 259 263 266 269 266 263 260 257 256 255 254
279 278 276 275 274 273 274 275 277 278 280 282 283 280 275 268 264 262 260 261 262 263 260 258 260 262 261 260 258 257 256 256 256 258 262 265 265 263 259 256 254 253 253
280 278 277 275 273 272 273 273 275 276 279 281 281 281 279 273 268 263 262 261 261 261 259 259 261 263 263 263 261 258 256 255 255 255 258 261 262 261 259 256 253 251 251
282 280 278 277 276 275 274 274 274 275 276 278 279 279 279 277 274 268 266 264 262 261 260 261 262 263 264 265 263 260 257 254 253 253 254 256 258 259 259 255 252 250 249
282 280 277 276 276 276 275 275 274 274 274 275 277 277 276 276 273 273 271 268 267 264 263 263 264 265 266 265 263 260 257 254 251 251 251 253 255 257 258 253 251 248 247
285 281 278 276 275 275 275 275 274 274 273 273 273 274 274 275 273 271 270 272 270 268 268 269 269 268 267 265 262 259 256 254 250 249 249 251 252 255 255 253 250 247 245
288 283 278 275 273 273 273 273 273 272 272 271 271 271 272 272 272 271 268 268 269 270 270 271 272 270 267 263 258 256 254 252 249 247 247 248 250 252 253 251 249 248 245
293 287 281 277 273 272 271 271 271 271 271 271 271 271 271 270 270 270 269 268 267 268 269 271 271 268 263 259 256 253 250 248 246 244 244 245 246 249 248 247 248 245 244
300 293 286 280 275 272 271 270 270 269 269 270 270 270 270 270 270 270 269 269 269 268 270 270 270 265 259 255 251 247 246 244 242 240 239 241 243 245 244 243 244 242 242
305 298 291 284 278 274 272 270 269 269 269 269 269 269 269 269 269 269 269 268 268 269 270 269 267 262 254 249 247 245 244 242 239 237 236 238 239 239 238 239 241 242 242
309 303 296 288 281 277 273 271 269 269 268 268 268 268 268 267 267 267 267 267 266 267 267 265 262 256 252 247 244 245 245 240 238 237 236 236 236 237 238 237 239 241 242
312 306 300 294 287 281 276 273 270 268 267 266 266 266 266 266 266 265 264 263 263 262 260 258 254 250 248 248 245 245 245 241 238 236 234 234 234 236 238 239 240 241 242
314 310 305 299 293 286 281 276 272 269 267 266 265 264 264 263 262 259 258 257 255 254 254 250 247 247 248 249 248 248 245 242 239 236 234 234 235 238 241 242 243 244 247
314 312 308 303 298 291 285 280 275 269 266 263 261 261 259 256 253 251 250 246 246 246 244 242 243 246 249 252 251 248 244 242 242 241 240 240 241 243 245 247 250 251 252
313 312 308 305 301 295 289 283 277 269 263 259 257 256 252 247 245 245 243 241 240 240 240 240 243 247 249 251 249 249 248 248 249 249 248 247 247 248 249 250 252 254 255
310 310 307 305 302 297 291 286 279 270 261 253 251 250 246 242 243 240 236 235 236 235 235 237 241 244 246 248 249 249 250 253 254 255 256 256 256 256 256 256 256 256 257
305 306 305 303 301 297 292 286 277 270 258 249 248 243 241 240 237 232 232 232 234 233 234 237 239 240 243 245 248 250 254 257 259 260 261 262 263 264 265 264 263 263 262
297 300 300 300 298 294 292 284 275 265 256 252 247 241 238 236 232 229 227 230 232 232 231 233 235 238 242 246 249 254 258 261 265 267 268 269 270 270 270 270 270 269 268
289 291 292 293 293 291 286 278 269 262 254 247 243 235 232 231 229 225 221 224 225 225 228 232 236 238 242 247 253 259 264 268 271 273 274 276 276 276 276 276 275 274 272
279 281 282 284 285 284 280 275 270 258 245 239 236 229 227 224 222 217 213 213 217 222 225 230 235 238 244 251 257 263 269 272 276 278 280 281 282 281 281 280 279 277 275
268 270 271 272 273 274 273 270 264 251 235 225 221 221 218 216 214 212 208 207 210 214 219 223 227 234 243 253 263 270 274 278 283 286 289 290 290 290 288 286 285 283 281
257 259 260 260 261 263 264 260 253 240 228 218 211 207 203 199 196 195 196 198 201 203 206 212 221 231 243 253 263 273 281 287 292 296 298 300 300 300 299 297 295 292 289